Theta_e
350 351 355 356 361 361 360 360 355 355 355 351 350 353 355 357 358 363 351 353 351 351 349 337 330 326 326 326 325 324 327 329 329 330 335 335 335 331 328 327 327 342 340 335 333 332 341 336 340
352 351 353 352 362 363 362 356 356 354 353 353 351 351 354 359 356 351 350 352 351 351 350 349 338 328 328 328 329 327 328 328 328 329 332 334 334 333 329 327 328 330 332 340 341 337 334 337 334
354 353 355 358 361 363 360 353 354 353 352 351 351 352 354 356 354 351 351 351 350 351 350 350 341 337 333 335 334 332 331 330 330 331 333 333 334 333 328 327 327 329 330 333 337 340 337 337 332
354 355 354 362 356 358 354 354 352 352 351 350 351 355 356 354 353 353 351 351 350 350 352 341 341 341 338 336 338 338 339 340 338 336 333 334 334 330 328 328 330 330 329 330 335 337 336 336 335
355 354 361 359 355 353 353 352 352 353 351 350 352 354 356 355 353 351 351 351 350 351 353 341 342 341 341 341 339 340 341 341 342 342 339 337 335 331 329 329 328 327 329 332 334 336 334 336 334
354 351 359 356 353 351 351 352 353 351 351 350 351 354 355 355 353 350 350 351 349 353 351 349 342 342 341 341 341 341 341 342 342 342 339 340 340 339 332 329 330 335 338 339 339 336 336 337 336
351 355 354 350 352 352 350 349 350 349 350 351 349 357 354 353 352 350 349 351 349 352 351 350 347 343 342 342 341 340 342 342 342 340 340 336 337 336 334 331 336 338 338 338 338 340 337 338 337
350 350 350 350 354 353 349 348 349 350 353 351 349 355 356 353 352 350 349 350 352 352 354 349 351 351 346 344 339 336 340 341 340 339 335 336 336 336 332 335 342 339 338 339 339 342 339 337 338
347 354 352 350 348 350 348 348 349 349 351 352 351 352 355 353 351 350 349 349 351 353 353 354 350 350 349 348 343 341 337 337 331 331 339 339 336 335 334 335 334 334 337 338 338 340 338 336 336
348 349 347 345 346 345 347 349 348 350 352 352 354 356 355 354 352 351 350 349 349 352 351 352 351 350 346 346 346 333 336 336 335 332 335 340 335 333 332 334 335 339 339 339 339 338 336 334 345
344 347 344 343 343 344 345 347 347 347 353 353 356 357 356 355 353 351 350 349 348 348 351 351 350 348 348 348 346 344 336 338 338 340 341 339 339 336 333 346 342 345 346 346 347 346 345 348 347
343 340 341 342 341 342 345 345 347 347 353 351 357 358 357 356 354 352 352 351 350 349 348 349 349 348 348 350 348 347 340 345 346 344 342 340 341 341 342 340 344 346 346 346 347 344 345 346 346
340 339 338 338 339 340 340 346 349 351 351 351 354 357 357 356 354 353 352 352 351 350 350 349 349 349 349 349 351 348 343 347 346 345 343 343 342 342 340 344 345 344 346 345 345 345 346 347 347
338 337 337 338 340 342 343 347 347 353 354 352 355 357 356 355 354 354 352 352 350 350 350 350 350 350 350 351 350 346 348 349 348 346 344 343 343 343 341 342 341 347 346 346 346 348 349 349 349
337 336 338 340 341 343 345 353 354 355 356 356 355 357 355 355 355 353 352 351 350 350 350 351 352 352 350 351 348 346 344 351 347 347 346 342 340 340 341 338 342 344 347 344 350 350 347 348 348
337 338 341 341 341 344 344 356 354 355 355 355 356 355 355 354 355 355 352 351 350 352 350 352 351 352 349 350 349 346 345 349 348 347 345 346 340 340 340 336 339 346 346 348 348 349 349 349 349
338 340 344 342 343 344 345 357 353 353 353 354 355 353 352 354 354 352 348 346 341 352 351 352 352 350 351 349 349 346 348 349 347 345 347 345 341 341 341 340 335 344 346 349 349 348 348 345 349
339 340 338 340 343 345 346 351 352 352 353 353 352 350 353 353 351 349 347 343 348 352 351 353 353 353 351 349 348 349 347 350 349 348 345 345 345 341 341 340 339 344 348 344 348 348 349 351 349
338 337 338 341 342 343 344 347 348 351 350 350 349 350 353 351 349 347 346 351 351 352 352 353 353 354 352 351 351 351 351 350 349 348 348 347 343 341 341 341 340 339 346 342 340 340 342 350 350
337 337 338 340 341 342 346 350 349 350 348 347 348 350 350 347 346 345 350 351 351 351 353 354 354 353 352 350 350 350 352 352 351 347 344 342 342 341 341 341 343 341 346 345 339 344 347 350 350
337 338 338 339 341 340 345 354 352 350 348 347 348 349 346 346 346 348 349 349 350 352 353 349 353 353 351 349 350 352 352 349 347 345 346 344 345 345 342 343 343 342 342 348 342 343 348 347 350
337 337 336 337 339 345 344 351 345 350 350 348 348 348 347 347 345 346 346 347 348 350 350 352 353 353 348 351 353 353 350 346 344 345 345 345 344 341 344 343 344 344 344 346 348 349 347 350 343
336 336 337 337 339 341 343 346 354 346 349 348 347 346 346 346 344 344 345 347 350 351 351 353 353 354 354 354 350 348 345 345 346 346 346 345 348 345 343 344 344 344 345 348 351 350 348 352 349
335 335 337 339 338 340 342 345 350 347 348 347 346 345 344 343 344 345 347 348 348 350 351 353 356 354 356 356 348 346 347 346 348 347 348 347 348 348 347 347 346 345 346 348 350 350 348 350 351
335 337 341 343 341 342 343 344 348 345 345 345 345 343 343 343 345 346 347 349 350 352 352 354 357 359 359 359 358 348 347 348 353 350 348 346 348 348 348 347 349 348 346 346 349 346 345 349 350
336 337 345 348 349 349 346 346 351 345 343 342 343 342 342 343 345 347 348 349 350 351 353 353 355 359 360 360 360 358 358 354 355 353 352 353 351 349 348 350 350 349 350 350 350 350 349 349 350
337 338 338 340 341 342 348 349 347 345 344 343 342 342 343 344 345 346 347 349 350 350 350 351 355 358 359 359 360 360 360 357 356 353 357 355 352 351 350 350 351 351 350 349 349 349 349 347 351
335 336 337 339 342 344 346 347 354 348 345 345 343 342 343 344 345 346 347 348 349 350 351 353 352 356 357 358 358 359 356 359 351 349 357 353 355 351 352 351 350 351 351 351 350 349 349 346 349
335 336 337 337 338 343 350 347 342 349 345 345 343 341 342 343 344 346 347 350 352 353 353 353 354 357 358 358 357 357 356 358 354 353 352 356 354 356 353 353 352 352 350 351 348 349 348 348 348
335 336 335 336 339 346 343 348 339 345 345 343 343 342 343 345 347 351 354 356 357 358 358 359 354 345 341 340 341 343 351 347 353 353 352 347 352 353 353 353 351 351 351 351 350 350 348 347 347
Wind_Speed
7 8 5 5 5 5 10 5 7 6 7 7 9 11 8 17 6 7 22 20 22 21 21 22 22 21 22 22 21 20 20 19 15 14 14 13 13 13 12 11 11 12 10 10 10 11 10 10 11
2 4 3 7 2 3 7 9 7 9 11 7 8 3 13 16 12 20 20 23 23 21 21 21 23 22 22 21 19 19 18 18 16 12 12 11 9 9 9 9 10 10 9 9 8 9 9 8 8
3 3 8 3 2 1 9 8 9 10 3 4 8 12 12 9 10 18 20 25 22 21 19 22 24 21 21 20 18 17 16 15 15 13 10 8 7 7 7 7 7 8 7 6 5 6 6 7 7
4 5 6 1 10 8 11 11 9 9 6 5 1 11 9 7 14 11 25 24 22 21 20 23 25 22 20 19 18 16 14 12 11 10 9 7 6 5 4 5 5 6 4 4 3 3 2 3 3
3 5 3 3 13 9 6 9 5 8 10 10 10 16 12 7 9 20 26 23 21 22 19 24 24 23 19 17 16 15 12 11 11 9 8 6 4 3 3 2 2 3 3 2 2 2 5 1 1
10 3 3 3 11 5 6 7 2 6 4 6 7 14 10 10 17 23 23 22 23 20 17 21 23 21 18 16 15 13 11 10 10 8 6 4 2 3 2 1 2 3 4 4 3 4 7 4 4
13 3 10 10 12 8 7 6 4 6 2 10 2 16 11 15 19 20 21 19 19 19 21 19 19 20 19 16 14 13 12 11 11 11 9 7 5 4 2 1 2 2 3 5 5 6 7 5 6
10 4 5 5 7 8 8 7 3 2 13 7 4 8 13 17 18 19 18 18 21 20 19 19 19 17 15 14 13 12 12 12 12 11 14 9 15 7 5 1 3 5 5 5 6 6 7 6 6
8 5 5 16 2 9 8 5 5 2 10 4 5 6 19 21 20 19 19 19 19 17 18 19 19 17 14 12 13 13 12 14 16 17 9 14 17 10 10 8 8 11 10 8 8 6 7 6 5
10 5 8 7 9 10 9 7 10 9 13 13 10 11 19 22 21 21 20 20 20 19 19 16 17 15 14 12 15 13 13 13 13 15 15 7 18 15 13 14 10 9 10 10 7 6 7 6 9
2 8 4 5 10 10 8 5 4 5 16 7 21 17 20 21 20 20 19 18 19 18 17 19 17 16 17 17 15 14 16 15 15 12 10 6 13 14 13 8 6 8 6 3 6 5 5 9 2
6 4 3 5 3 2 3 5 4 9 13 7 20 18 19 21 19 18 18 17 16 22 18 16 17 17 16 15 12 13 14 11 14 9 9 8 6 11 10 7 5 2 6 8 1 6 7 7 11
8 3 2 1 4 5 4 3 4 7 12 6 9 17 18 19 19 21 21 20 19 17 22 17 20 18 18 14 17 16 11 11 11 11 10 9 9 10 11 8 5 2 4 2 5 6 7 8 7
2 5 6 2 3 4 2 2 5 8 6 4 10 15 16 19 19 17 20 21 20 18 17 19 16 16 18 13 13 12 13 10 12 8 8 10 11 11 9 12 5 3 5 7 5 7 8 11 5
8 10 10 3 2 3 5 5 4 3 2 6 11 12 14 17 17 22 19 16 15 16 19 19 15 16 18 16 13 12 9 10 6 8 8 7 8 9 6 10 6 3 1 5 5 3 5 5 5
12 12 7 8 5 5 11 6 4 3 6 8 10 13 11 10 10 12 12 13 10 10 18 15 16 17 15 14 12 12 10 10 12 10 8 9 7 7 8 10 7 4 4 2 5 3 7 7 7
11 7 19 14 3 1 8 7 5 3 4 6 9 11 12 10 8 6 9 13 11 11 14 13 12 15 16 14 16 12 11 10 12 13 8 10 8 8 7 10 10 3 3 4 4 4 7 8 5
6 13 8 1 7 5 3 4 5 5 4 9 12 9 11 9 14 12 15 17 15 18 13 14 12 11 12 12 12 11 13 11 13 13 11 11 9 8 10 9 12 7 6 6 4 10 7 5 4
8 3 6 8 4 5 0 3 5 7 6 4 3 3 0 11 15 14 18 17 14 12 14 13 14 13 13 13 11 10 9 10 12 11 10 9 9 10 10 9 12 12 8 6 5 6 6 5 4
8 8 9 7 5 9 5 4 5 7 3 1 8 6 12 11 14 17 12 8 12 12 11 12 12 11 13 11 10 7 5 7 9 8 10 11 11 11 14 14 13 13 12 11 8 6 7 8 4
12 14 5 2 7 11 7 5 5 5 7 6 12 13 15 15 19 15 14 12 10 11 12 11 12 12 11 10 9 7 7 4 5 9 11 10 13 13 13 15 15 14 18 11 8 7 6 5 4
15 1 6 10 10 3 16 6 13 11 10 8 12 14 17 13 15 15 14 12 11 9 9 10 11 11 9 10 9 9 7 7 8 8 11 12 11 10 14 16 15 16 14 15 13 10 6 4 4
11 5 11 12 14 17 7 6 13 10 11 11 15 15 16 14 18 16 16 15 13 11 8 8 10 10 11 11 9 9 8 7 6 9 10 10 13 12 12 15 17 16 15 16 13 10 10 6 6
11 10 14 13 16 11 5 16 5 16 11 13 16 16 17 18 17 14 14 12 11 10 9 9 11 10 11 10 7 6 4 6 6 6 9 7 9 8 10 12 14 15 17 16 13 13 11 9 6
15 15 5 10 13 1 14 12 7 22 12 13 17 19 19 18 18 16 16 13 11 9 7 8 11 10 11 10 9 6 6 8 7 6 4 4 8 8 6 8 10 11 16 18 14 15 12 8 7
16 19 7 9 7 4 18 4 9 15 12 18 20 20 21 20 19 17 15 13 11 9 8 8 9 10 10 9 9 8 7 6 5 2 4 5 4 5 10 9 12 14 14 14 15 13 11 10 10
17 16 21 21 15 11 6 5 12 15 15 14 23 22 22 21 19 17 14 12 11 10 8 8 8 6 6 7 8 8 7 6 8 5 4 4 5 6 6 8 10 13 14 17 17 16 16 14 12
19 13 10 16 15 14 0 15 15 16 16 15 19 22 22 20 18 17 14 12 10 10 9 9 8 4 2 4 6 6 5 7 8 8 6 7 6 8 10 12 13 13 14 14 17 18 17 15 14
12 15 17 13 2 10 3 8 18 17 18 18 19 21 21 19 17 16 15 12 10 7 6 7 3 2 1 1 3 4 5 5 7 7 7 8 8 9 10 13 13 13 15 16 19 20 22 19 19
21 15 18 13 8 7 13 4 16 13 19 22 21 21 20 18 16 15 12 11 10 10 10 10 10 10 8 7 6 6 5 8 3 6 8 10 9 12 10 12 14 15 15 15 18 20 20 22 22
Wind_Direction
22 8 308 280 259 210 90 92 136 116 78 82 78 56 75 53 53 85 138 142 145 151 154 152 149 148 150 151 152 153 157 163 147 137 133 124 117 109 104 98 93 90 80 81 85 92 94 93 102
1 297 281 272 284 352 95 131 106 56 79 109 122 137 86 65 63 123 134 144 147 150 148 160 156 153 149 149 149 152 151 156 157 149 145 136 124 111 104 96 94 93 90 82 73 82 94 100 103
18 256 258 260 101 60 113 134 99 108 77 101 94 60 39 74 103 130 142 143 147 149 153 168 162 158 155 151 153 153 152 152 155 154 153 145 128 119 113 103 93 86 83 77 81 78 82 92 92
299 218 230 262 103 38 103 93 130 127 114 68 37 88 89 74 130 141 145 145 149 148 157 161 165 165 157 159 157 158 159 158 154 157 160 145 149 141 120 102 85 80 74 62 61 57 81 137 128
278 255 254 151 78 94 66 113 104 106 68 68 49 79 77 117 141 148 148 151 152 153 164 162 163 166 165 164 167 167 170 169 169 169 160 163 170 149 123 90 60 49 24 28 25 348 291 238 238
272 11 323 134 103 107 102 120 138 145 95 100 101 76 68 121 142 148 150 154 156 151 157 163 164 167 170 170 169 172 173 175 175 170 172 166 210 187 179 194 9 17 358 344 338 273 264 270 225
266 248 145 120 127 130 119 136 195 116 21 74 155 81 110 132 143 150 153 158 161 167 157 164 164 173 174 177 175 175 177 183 188 190 178 180 244 254 208 270 348 337 333 327 338 280 263 254 227
274 265 97 125 99 121 136 142 101 25 86 114 287 114 154 153 154 155 158 160 161 157 164 169 173 171 176 180 182 184 187 193 212 218 224 219 217 225 241 325 294 303 310 322 315 274 265 251 234
261 277 57 70 36 111 126 177 142 316 113 93 80 44 144 159 158 164 166 165 165 171 170 172 177 177 170 183 183 180 193 205 227 233 267 249 215 210 231 229 262 281 286 292 299 272 261 252 250
277 81 52 5 48 124 129 257 156 218 156 145 110 105 147 157 165 172 175 176 177 169 167 177 172 174 181 181 205 187 197 216 235 240 266 287 211 220 250 278 278 294 279 284 290 285 282 274 247
238 52 99 107 10 341 94 193 306 266 4 178 143 149 157 165 174 179 180 184 184 184 179 175 178 181 181 187 208 194 208 226 242 243 239 252 212 219 235 242 276 296 298 274 270 309 341 275 129
209 125 104 14 35 337 310 342 307 317 160 16 134 155 164 173 179 182 182 183 182 181 184 182 186 185 191 200 207 205 215 209 224 226 224 233 225 227 231 239 287 280 243 221 293 236 249 262 258
231 153 219 258 311 288 286 52 4 348 337 330 124 158 173 177 184 185 183 182 183 176 187 189 198 186 191 201 206 209 221 221 234 221 243 231 231 227 223 247 248 301 236 76 235 245 246 269 256
39 256 256 192 293 87 178 116 257 30 344 182 161 166 176 183 188 178 168 175 174 184 188 191 199 203 195 202 218 206 208 211 216 237 239 235 229 225 247 228 199 175 254 243 254 256 258 244 263
264 251 214 179 351 68 150 128 51 29 90 136 171 141 170 191 169 179 164 147 163 181 193 191 196 210 206 202 216 209 206 227 237 241 238 243 225 215 206 186 213 231 127 294 254 270 277 274 258
243 225 204 110 315 121 239 135 123 139 154 154 153 167 178 193 200 137 167 142 156 165 193 193 200 209 214 213 221 216 206 210 229 243 229 228 222 218 204 201 216 148 218 290 265 274 268 268 276
213 291 135 215 68 187 231 115 113 171 161 156 164 189 201 198 190 155 157 165 181 181 203 200 195 203 218 219 221 222 221 224 235 255 225 225 223 212 208 209 213 196 217 267 252 249 285 289 285
253 177 178 48 97 234 120 87 151 175 197 181 202 227 153 181 166 161 148 168 196 201 199 199 199 193 207 216 219 220 223 226 219 250 226 218 218 220 215 216 212 214 238 243 246 253 268 272 279
277 299 276 119 148 234 13 131 165 164 184 194 245 340 90 152 161 167 191 192 185 181 190 189 204 196 205 204 211 218 228 231 233 235 222 218 235 240 240 223 228 229 233 246 236 248 266 255 254
256 240 250 134 179 253 175 154 163 178 139 168 113 125 143 147 155 164 191 187 185 188 189 190 195 205 209 218 220 231 230 247 264 251 256 258 247 259 245 236 228 230 217 244 237 244 252 251 216
233 245 263 169 209 236 195 103 292 173 143 133 125 133 148 145 165 173 181 182 174 186 189 197 194 197 214 217 223 220 227 237 245 261 250 259 255 249 241 237 233 227 217 232 250 257 238 289 231
247 151 257 269 240 156 266 229 244 187 144 164 149 155 159 151 143 159 159 160 165 167 172 182 190 193 207 201 209 219 226 245 255 258 252 256 242 246 239 234 233 227 216 214 233 249 238 232 242
265 249 263 240 251 232 200 288 325 169 162 155 160 166 160 162 147 153 157 170 155 159 160 178 179 190 196 204 197 233 238 247 259 261 254 256 243 247 233 229 234 232 220 214 222 235 229 231 242
265 246 243 238 244 240 244 259 73 291 130 147 155 163 152 159 154 155 143 147 149 155 170 173 193 198 203 215 224 240 265 274 274 259 263 246 234 244 230 223 225 227 206 213 214 227 241 226 233
228 244 237 254 231 147 239 270 175 253 143 146 153 158 161 160 157 157 160 163 163 172 186 193 202 207 213 217 230 259 274 275 260 282 292 255 235 239 239 210 221 224 214 208 216 225 227 238 241
219 241 116 254 316 35 247 139 175 161 130 140 152 158 160 164 165 167 169 174 178 182 199 215 212 217 223 225 232 242 250 264 311 292 239 283 273 221 246 228 216 209 214 219 226 230 226 230 245
240 237 136 236 262 213 63 131 128 139 147 158 152 159 165 168 171 173 173 177 179 176 176 184 187 189 210 231 235 243 243 246 225 225 249 273 236 241 254 243 236 220 217 215 219 228 230 216 235
252 286 255 230 222 272 66 286 130 165 151 169 160 165 170 173 170 167 176 180 184 192 197 193 182 185 234 233 251 244 257 254 244 237 242 224 230 231 220 242 224 223 228 235 226 223 243 228 230
208 248 258 283 46 284 125 320 316 164 168 169 170 167 170 172 173 168 173 175 182 189 178 190 190 148 108 247 266 260 247 270 277 270 258 277 255 237 236 234 228 239 233 227 228 227 223 240 242
246 238 243 250 224 157 249 195 254 204 173 174 165 172 166 167 169 168 171 169 164 153 147 143 125 105 91 78 63 44 18 356 321 281 270 263 258 264 258 245 243 240 236 242 241 234 232 240 236